Flag for China Weather past 2 weeks in Hangzhou, Zhejiang, China

Now
82 °F

Scattered clouds.


Feels Like: 91 °F
Forecast: 77 / 92 °F
Wind: 3 mph from East

Location: Hangzhou Airport

Current Time: Jul 31, 2014 at 6:04:24 AM

Latest Report: Jul 31, 2014 at 5:30 AM


Visibility: N/A

Pressure: 29.68 "Hg

Humidity: 84%

Dew point: 77 °F

Location of HangzhouLocation

Historic Weather in Hangzhou — Graph

°F

Hangzhou temperature yesterday

Maximum temperature yesterday: 95 °F (at 11:30 AM)
Minimum temperature yesterday: 82 °F (at 4:00 AM)
Average temperature yesterday: 89 °F

Past Weeks' High & Low Weather Summary

 TemperatureHumidityPressure
High99 °F (Jul 22, 1:30 PM)89% (Jul 16, 4:00 AM)29.86 "Hg (Jul 16, 4:00 AM)
Low75 °F (Jul 16, 4:00 AM)34% (Jul 29, 3:00 PM)29.36 "Hg (Jul 24, 5:30 PM)
Average86 °F67%29.72 "Hg
* Reported Jul 16 4:00 AM — Jul 31 4:30 AM, Hangzhou, Weather by CustomWeather, © 2014

Note: Actual official high and low records may vary slightly from our data, if they occured in-between our weather recording intervals... More about our weather records

Advertising

Hangzhou weather history for previous 24 hours

 ConditionsComfort  
Time TempWeatherWind HumidityBarometerVisibility
4:30 AM
Jul 31
82 °FClear.3 mph84%29.65 "Hg10 mi
4:00 AM82 °FClear.3 mph84%29.68 "Hg10 mi
3:30 AM82 °FClear.3 mph79%29.65 "Hg10 mi
3:00 AM82 °FClear.1 mph79%29.65 "Hg10 mi
2:30 AM82 °FPassing clouds.3 mph79%29.65 "HgN/A
1:30 AM82 °FClear.3 mph79%29.65 "Hg10 mi
1:00 AM84 °FPassing clouds.3 mph74%29.65 "HgN/A
12:30 AM84 °FClear.1 mph74%29.65 "Hg10 mi
12:00 AM84 °FClear.6 mph74%29.68 "Hg10 mi
11:30 PM
Jul 30
84 °FClear.8 mph74%29.68 "Hg10 mi
11:00 PM84 °FPassing clouds.8 mph74%29.68 "HgN/A
10:30 PM86 °FClear.8 mph70%29.68 "Hg10 mi
10:00 PM86 °FClear.6 mph66%29.65 "Hg10 mi
9:30 PM86 °FClear.8 mph70%29.68 "Hg10 mi
9:00 PM86 °FPassing clouds.8 mph70%29.65 "HgN/A
8:30 PM86 °FClear.8 mph70%29.65 "Hg10 mi
8:00 PM86 °FClear.8 mph66%29.65 "Hg10 mi
7:30 PM88 °FClear.10 mph62%29.65 "Hg10 mi
7:00 PM88 °FPassing clouds.10 mph66%29.62 "HgN/A
6:30 PM88 °FSunny.13 mph66%29.62 "Hg10 mi
6:00 PM90 °FSunny.10 mph67%29.62 "Hg10 mi
5:30 PM91 °FPassing clouds.10 mph63%29.62 "HgN/A
5:00 PM91 °FPassing clouds.13 mph63%29.62 "HgN/A
4:30 PM93 °FPassing clouds.13 mph56%29.62 "HgN/A
4:00 PM93 °FPassing clouds.10 mph53%29.65 "HgN/A
3:30 PM95 °FPassing clouds.8 mph44%29.65 "HgN/A
3:00 PM95 °FPassing clouds.8 mph44%29.65 "HgN/A
2:30 PM95 °FPassing clouds.10 mph44%29.65 "HgN/A
2:00 PM95 °FPassing clouds.8 mph36%29.68 "HgN/A
1:30 PM95 °FPassing clouds.8 mph41%29.68 "HgN/A
1:00 PM95 °FPassing clouds.8 mph44%29.68 "HgN/A
12:30 PM95 °FPassing clouds.6 mph47%29.68 "HgN/A
12:00 PM95 °FPassing clouds.8 mph44%29.71 "HgN/A
11:30 AM95 °FPassing clouds.6 mph47%29.71 "HgN/A
11:00 AM93 °FPassing clouds.6 mph47%29.71 "HgN/A
10:30 AM93 °FSunny.1 mph47%29.71 "Hg10 mi
10:00 AM93 °FSunny.1 mph49%29.74 "Hg10 mi
9:30 AM91 °FSunny.1 mph52%29.74 "Hg10 mi
9:00 AM90 °FPassing clouds.3 mph55%29.74 "HgN/A
8:30 AM90 °FPassing clouds.3 mph55%29.74 "HgN/A
8:00 AM88 °FPassing clouds.3 mph59%29.74 "HgN/A
7:30 AM88 °FPassing clouds.3 mph62%29.74 "HgN/A
7:00 AM86 °FPassing clouds.3 mph62%29.71 "HgN/A
6:30 AM84 °FSunny.1 mph70%29.71 "Hg10 mi
6:00 AM82 °FSunny.No wind74%29.71 "Hg10 mi
Weather by CustomWeather, © 2014

See weather overviewHow to use our weather pages